Weather History for KJST - February, 2014

Change the Weather History Date:

Tuesday, February 11, 2014

  Actual Average Record
Temperature  
Mean Temperature 10 °F 26 °F  
Max Temperature 15 °F 33 °F 77 °F (1932)
Min Temperature 4 °F 19 °F -14 °F (1899)
Degree Days  
Heating Degree Days 55 39  
Month to date heating degree days 488 434  
Since 1 July heating degree days 4607 4251  
Cooling Degree Days 0 0  
Month to date cooling degree days 0 0  
Year to date cooling degree days 0 0  
Moisture  
Dew Point 3 °F    
Average Humidity 74    
Maximum Humidity 88    
Minimum Humidity 59    
Precipitation  
Precipitation T in 0.08 in 2.14 in (1983)
Month to date precipitation 1.36 0.93  
Year to date precipitation 2.24 3.81  
Sea Level Pressure  
Sea Level Pressure 30.31 in    
Wind  
Wind Speed 7 mph (WNW)    
Max Wind Speed 14 mph    
Max Gust Speed 16 mph    
Visibility 6 miles    
Events Snow    
T = Trace of Precipitation, MM = Missing Value Source: NWS Daily Summary

Daily Weather History Graph

Daily Weather History Graph

Search for Another Location

Airport or City:

Trip Planner

Search our weather history database for the weather conditions in past years. The results will help you decide how hot, cold, wet, or windy it might be!

Date:

Astronomy

Feb. 11, 2014 Rise Set
Actual Time 7:13 AM EST 5:46 PM EST
Civil Twilight 6:45 AM EST 6:14 PM EST
Nautical Twilight 6:13 AM EST 6:46 PM EST
Astronomical Twilight 5:41 AM EST 7:17 PM EST
Moon 3:04 PM EST (2/11) 4:49 AM EST (2/11)
Length of Visible Light 11h 28m
Length of Day
10h 32m
Waxing Gibbous, 90% of the Moon is Illuminated
Feb 11
Waxing Gibbous
Feb 14
Full
Feb 22
Last Quarter
Mar 1
New
Mar 8
First Quarter

Hourly Weather History & Observations

Time (EST) Temp. Windchill Dew Point Humidity Pressure Visibility Wind Dir Wind Speed Gust Speed Precip Events Conditions
12:54 AM 10.0 °F -3.7 °F 3.9 °F 76% 30.30 in 10.0 mi WNW 10.4 mph - N/A   Overcast
1:54 AM 10.0 °F -1.9 °F 3.0 °F 73% 30.30 in 6.0 mi WNW 8.1 mph - 0.00 in Snow Light Snow
2:41 AM 9.0 °F -5.1 °F 3.9 °F 80% 30.17 in 2.0 mi WNW 10.4 mph - 0.00 in Snow Light Snow
2:54 AM 9.0 °F -5.1 °F 3.9 °F 80% 30.31 in 2.0 mi WNW 10.4 mph - 0.00 in Snow Light Snow
3:04 AM 9.0 °F -4.2 °F 3.9 °F 80% 30.17 in 1.8 mi NW 9.2 mph - 0.00 in Snow Light Snow
3:22 AM 9.0 °F -3.2 °F 3.9 °F 80% 30.17 in 2.5 mi WNW 8.1 mph - 0.00 in Snow Light Snow
3:35 AM 9.0 °F -2.2 °F 3.9 °F 80% 30.17 in 3.0 mi WNW 6.9 mph - 0.00 in Snow Light Snow
3:54 AM 8.1 °F 1.4 °F 3.9 °F 83% 30.31 in 4.0 mi WNW 3.5 mph - 0.00 in Snow Light Snow
4:54 AM 7.0 °F -3.3 °F 3.0 °F 84% 30.32 in 5.0 mi NW 5.8 mph - 0.00 in Snow Light Snow
5:17 AM 5.0 °F -5.6 °F 1.9 °F 87% 30.18 in 8.0 mi West 5.8 mph - 0.00 in   Overcast
5:54 AM 6.1 °F -0.9 °F 3.0 °F 87% 30.34 in 7.0 mi WSW 3.5 mph - 0.00 in   Overcast
6:13 AM 5.0 °F -4.1 °F 1.9 °F 87% 30.20 in 2.0 mi WSW 4.6 mph - 0.00 in Snow Light Snow
6:29 AM 6.1 °F -0.9 °F 3.0 °F 87% 30.20 in 3.0 mi West 3.5 mph - 0.00 in Snow Light Snow
6:54 AM 6.1 °F -2.8 °F 3.0 °F 87% 30.36 in 3.0 mi West 4.6 mph - 0.00 in Snow Light Snow
7:09 AM 5.0 °F -2.1 °F 1.9 °F 87% 30.21 in 3.0 mi WSW 3.5 mph - 0.00 in Snow Light Snow
7:18 AM 5.0 °F -2.1 °F 1.9 °F 87% 30.22 in 2.5 mi West 3.5 mph - 0.00 in   Scattered Clouds
7:27 AM 5.0 °F -4.1 °F 1.9 °F 87% 30.22 in 1.5 mi West 4.6 mph - 0.00 in   Scattered Clouds
7:36 AM 5.0 °F -2.1 °F 1.9 °F 87% 30.22 in 2.0 mi West 3.5 mph - 0.00 in   Partly Cloudy
7:44 AM 5.0 °F -2.1 °F 1.9 °F 87% 30.23 in 1.5 mi WSW 3.5 mph - 0.00 in   Scattered Clouds
7:54 AM 5.0 °F -4.1 °F 1.9 °F 87% 30.39 in 2.0 mi SW 4.6 mph - 0.00 in   Partly Cloudy
8:06 AM 3.9 °F -5.3 °F 1.9 °F 91% 30.24 in 4.0 mi WSW 4.6 mph - N/A   Partly Cloudy
8:54 AM 6.1 °F -0.9 °F 3.9 °F 91% 30.40 in 6.0 mi WSW 3.5 mph - N/A   Clear
9:54 AM 7.0 °F -1.7 °F 3.0 °F 84% 30.41 in 3.0 mi WSW 4.6 mph - N/A   Mostly Cloudy
10:02 AM 8.1 °F -0.5 °F 3.9 °F 83% 30.26 in 2.0 mi West 4.6 mph - 0.00 in Snow Light Snow
10:19 AM 9.0 °F -0.9 °F 3.0 °F 77% 30.26 in 2.5 mi NW 5.8 mph - 0.00 in   Haze
10:27 AM 9.0 °F -2.2 °F 3.0 °F 77% 30.27 in 3.0 mi NW 6.9 mph - 0.00 in   Haze
10:54 AM 10.9 °F -1.8 °F 3.9 °F 73% 30.42 in 4.0 mi WNW 9.2 mph - 0.00 in   Haze
11:54 AM 12.0 °F -0.4 °F 3.9 °F 70% 30.40 in 7.0 mi WNW 9.2 mph - 0.00 in   Overcast
12:36 PM 12.9 °F 1.6 °F 3.9 °F 67% 30.24 in 10.0 mi West 8.1 mph - 0.00 in   Scattered Clouds
12:54 PM 14.0 °F 1.2 °F 5.0 °F 67% 30.38 in 10.0 mi NW 10.4 mph - 0.00 in   Partly Cloudy
1:54 PM 15.1 °F 3.3 °F 5.0 °F 64% 30.36 in 10.0 mi WNW 9.2 mph - 0.00 in   Clear
2:54 PM 15.1 °F 4.2 °F 3.9 °F 61% 30.37 in 10.0 mi NW 8.1 mph - N/A   Clear
3:54 PM 14.0 °F 2.9 °F 3.9 °F 64% 30.38 in 10.0 mi WNW 8.1 mph - N/A   Partly Cloudy
4:54 PM 12.9 °F -0.2 °F 3.0 °F 65% 30.39 in 10.0 mi NW 10.4 mph - N/A   Clear
5:54 PM 10.0 °F -0.9 °F 1.9 °F 70% 30.42 in 10.0 mi NW 6.9 mph - N/A   Clear
6:54 PM 9.0 °F -2.2 °F 1.0 °F 70% 30.44 in 10.0 mi NNW 6.9 mph - N/A   Clear
7:54 PM 9.0 °F -2.2 °F 1.9 °F 73% 30.45 in 10.0 mi North 6.9 mph - N/A   Clear
8:54 PM 7.0 °F 0.1 °F -0.0 °F 73% 30.46 in 10.0 mi NNE 3.5 mph - N/A   Clear
9:54 PM 6.1 °F -2.8 °F -0.0 °F 76% 30.47 in 10.0 mi NE 4.6 mph - N/A   Clear
10:54 PM 6.1 °F -4.3 °F 1.0 °F 80% 30.45 in 10.0 mi ENE 5.8 mph - N/A   Clear
11:54 PM 5.0 °F -4.1 °F -0.0 °F 80% 30.45 in 10.0 mi ENE 4.6 mph - N/A   Clear